Location: *
(48.8489°N, 2.3218°E)
Time: 23:14:52
(UTC+00:00)

Abrixas rocket - Pass Details

Date: 23 August 2019
Orbit: 364 x 371 km, 48.4° (Epoch: 16 September)

Event Time Altitude Azimuth Distance (km) Brightness Sun altitude
Rises 19:58:18 0° 259° (W) 2,218 6.7 -10.8°
Reaches altitude 10° 20:00:20 10° 258° (WSW) 1,372 5.6 -11.0°
Maximum altitude 20:03:24 77° 173° (S) 386 1.9 -11.5°
Enters shadow 20:05:44 16° 87° (E) 1,071 3.8 -11.8°
